Weather History for Dalhart, TX

Change the Weather History Date:

Wednesday, August 8, 2012

  Actual Average Record
Temperature  
Mean Temperature 81 °F 76 °F  
Max Temperature 95 °F 90 °F 102 °F (2011)
Min Temperature 66 °F 62 °F 55 °F (1988)
Degree Days  
Heating Degree Days 0 0  
Month to date heating degree days 0 0  
Since 1 June heating degree days 0 13  
Since 1 July heating degree days 0 1  
Cooling Degree Days 16 11  
Month to date cooling degree days 139 89  
Year to date cooling degree days 1216 766  
Since 1 June cooling degree days 1035 694  
Growing Degree Days 30 (Base 50)    
Moisture  
Dew Point 59 °F    
Average Humidity 56    
Maximum Humidity 93    
Minimum Humidity 19    
Precipitation  
Precipitation 0.21 in 0.11 in 1.20 in (1977)
Month to date precipitation 0.94 0.89  
Year to date precipitation 4.76 11.39  
Snow  
Snow 0.00 in 0.00 in T in (1950)
Month to date snowfall 0.0 0.0  
Since 1 June snowfall 0.0 0.0  
Since 1 July snowfall 0.0 0.0  
Snow Depth 0.00 in    
Sea Level Pressure  
Sea Level Pressure 30.02 in    
Wind  
Wind Speed 8 mph (East)    
Max Wind Speed 20 mph    
Max Gust Speed 25 mph    
Visibility 9 miles    
Events Rain , Thunderstorm    
T = Trace of Precipitation, MM = Missing Value Source: NWS Daily Summary

Daily Weather History Graph

Daily Weather History Graph

Search for Another Location

Airport:

Trip Planner

Search our weather history database for the weather conditions in past years. The results will help you decide how hot, cold, wet, or windy it might be!

Date:

Astronomy

Aug. 08, 2012 Rise Set
Actual Time 7:03 AM CDT 8:47 PM CDT
Civil Twilight 6:35 AM CDT 9:15 PM CDT
Nautical Twilight 6:02 AM CDT 9:48 PM CDT
Astronomical Twilight 5:26 AM CDT 10:23 PM CDT
Moon No Moon Rise 1:35 PM CDT (8/8)
Length of Visible Light 14h 39m
Length of Day
13h 44m
Waning Gibbous, 60% of the Moon is Illuminated
Aug 8
Waning Gibbous
Aug 9
Last Quarter
Aug 17
New
Aug 24
First Quarter
Aug 31
Full

Hourly Weather History & Observations

Time (CDT) Temp. Heat Index Dew Point Humidity Pressure Visibility Wind Dir Wind Speed Gust Speed Precip Events Conditions
12:13 AM 78.8 °F - 59.0 °F 51% 30.14 in 10.0 mi South 6.9 mph - N/A   Mostly Cloudy
12:53 AM 77.0 °F - 61.0 °F 58% 29.96 in 10.0 mi Calm Calm - 0.00 in   Mostly Cloudy
1:08 AM 77.0 °F - 60.8 °F 57% 30.20 in 10.0 mi NNE 11.5 mph - N/A Thunderstorm Overcast
1:31 AM 73.4 °F - 62.6 °F 69% 30.23 in 2.5 mi ENE 6.9 mph - 0.05 in Rain Heavy Rain
1:50 AM 69.8 °F - 64.4 °F 83% 30.21 in 3.0 mi East 10.4 mph - 0.15 in Rain Light Rain
1:53 AM 70.0 °F - 64.9 °F 84% 30.01 in 5.0 mi East 11.5 mph - 0.15 in Rain Light Rain
2:53 AM 69.1 °F - 64.9 °F 87% 29.99 in 9.0 mi NE 12.7 mph - 0.06 in Rain Light Rain
3:53 AM 68.0 °F - 64.9 °F 90% 29.98 in 8.0 mi East 8.1 mph - 0.00 in   Clear
4:53 AM 66.9 °F - 64.0 °F 90% 29.99 in 8.0 mi SE 8.1 mph - N/A   Clear
5:53 AM 66.9 °F - 64.0 °F 90% 30.01 in 6.0 mi SSE 6.9 mph - N/A   Clear
6:53 AM 66.9 °F - 64.0 °F 90% 30.00 in 8.0 mi South 8.1 mph - N/A   Clear
7:53 AM 66.9 °F - 64.0 °F 90% 30.04 in 5.0 mi SSW 5.8 mph - N/A   Clear
8:53 AM 70.0 °F - 64.9 °F 84% 30.05 in 9.0 mi SW 9.2 mph - N/A   Clear
9:53 AM 73.9 °F - 64.9 °F 73% 30.06 in 10.0 mi WSW 11.5 mph - N/A   Clear
10:53 AM 75.9 °F - 66.0 °F 71% 30.06 in 10.0 mi West 8.1 mph - N/A   Clear
11:53 AM 81.0 °F 82.5 °F 64.0 °F 56% 30.04 in 10.0 mi WNW 6.9 mph - N/A   Clear
12:53 PM 86.0 °F 86.1 °F 61.0 °F 43% 30.02 in 10.0 mi NNW 9.2 mph - N/A   Clear
1:53 PM 89.1 °F 87.3 °F 55.9 °F 32% 30.01 in 10.0 mi NNE 12.7 mph - N/A   Clear
2:53 PM 91.9 °F 90.3 °F 55.9 °F 30% 29.98 in 10.0 mi ENE 9.2 mph - N/A   Clear
3:53 PM 93.0 °F - 52.0 °F 25% 29.96 in 10.0 mi NE 10.4 mph 19.6 mph N/A   Clear
4:53 PM 95.0 °F - 46.9 °F 19% 29.94 in 10.0 mi NNE 12.7 mph 20.7 mph N/A   Clear
5:53 PM 93.0 °F - 46.9 °F 20% 29.94 in 10.0 mi NE 15.0 mph - N/A   Partly Cloudy
6:53 PM 91.9 °F - 46.9 °F 21% 29.93 in 10.0 mi ENE 10.4 mph - N/A   Clear
7:53 PM 89.1 °F - 48.0 °F 24% 29.94 in 10.0 mi East 6.9 mph - N/A   Clear
8:53 PM 82.0 °F 81.3 °F 54.0 °F 38% 29.96 in 10.0 mi East 3.5 mph - N/A   Clear
9:53 PM 81.0 °F - 51.1 °F 35% 29.97 in 10.0 mi East 3.5 mph - N/A   Clear
10:53 PM 75.9 °F - 53.1 °F 45% 29.99 in 10.0 mi ESE 6.9 mph - N/A   Clear
11:53 PM 73.0 °F - 54.0 °F 51% 30.00 in 10.0 mi Calm Calm - N/A   Clear